WZZ1453 LBSF-LIME

Flight info

Callsign WZZ1453
Flight time 1h 38m
Altitude 36000
Route OGOTA4S/09 OGOTA L615 OBLAK DCT BAXON DCT BOA DCT OGPUD DCT BETMU DCT OSBUL
Aircraft A320/M-SDE3FGHIRWY/LB1

Departure

Time 2026-05-04 16:09
Airport Sofia Airport (LBSF)

Arrival

Time 2026-05-04 17:47
Airport Il Caravaggio International Airport (LIME)
Time Latitude Longitude Altitude Speed Heading
2026-05-04 16:08 42.98448 23.44711 14716 ft 353 kts 342°
2026-05-04 16:09 43.03095 23.42272 15835 ft 362 kts 342°
2026-05-04 16:09 43.07821 23.39798 17029 ft 367 kts 342°
2026-05-04 16:10 43.12645 23.37280 18209 ft 373 kts 342°
2026-05-04 16:11 43.19037 23.31192 19711 ft 395 kts 301°
2026-05-04 16:11 43.20251 23.27789 20225 ft 399 kts 297°
2026-05-04 16:12 43.23783 23.17346 21747 ft 406 kts 296°
2026-05-04 16:12 43.27375 23.06718 23182 ft 412 kts 296°
2026-05-04 16:13 43.29799 22.99541 23997 ft 416 kts 295°
2026-05-04 16:13 43.32227 22.92332 24099 ft 416 kts 294°
2026-05-04 16:14 43.34648 22.85116 24103 ft 416 kts 294°
2026-05-04 16:14 43.37061 22.77894 24100 ft 416 kts 294°
2026-05-04 16:15 43.40329 22.66857 24097 ft 415 kts 290°
2026-05-04 16:16 43.42329 22.59410 24097 ft 413 kts 290°
2026-05-04 16:16 43.45346 22.48395 24097 ft 412 kts 290°
2026-05-04 16:17 43.47402 22.40998 24456 ft 416 kts 290°
2026-05-04 16:18 43.49710 22.29417 25614 ft 422 kts 282°
2026-05-04 16:18 43.50282 22.25426 25929 ft 426 kts 282°
2026-05-04 16:19 43.52019 22.13298 26962 ft 434 kts 282°
2026-05-04 16:19 43.53192 22.05097 27670 ft 438 kts 283°
2026-05-04 16:20 43.54962 21.92632 28730 ft 445 kts 283°
2026-05-04 16:20 43.56146 21.84213 29416 ft 450 kts 283°
2026-05-04 16:21 43.57913 21.71550 30749 ft 447 kts 283°
2026-05-04 16:22 43.59081 21.63156 31579 ft 445 kts 284°
2026-05-04 16:22 43.60807 21.50638 32908 ft 440 kts 284°
2026-05-04 16:23 43.62499 21.38238 34213 ft 436 kts 285°
2026-05-04 16:24 43.64533 21.23222 35434 ft 433 kts 284°
2026-05-04 16:25 43.65628 21.15074 36059 ft 431 kts 284°
2026-05-04 16:26 43.69472 20.86130 36099 ft 440 kts 283°
2026-05-04 16:28 43.72188 20.65313 36108 ft 441 kts 283°
2026-05-04 16:29 43.75920 20.36117 36105 ft 440 kts 283°
2026-05-04 16:31 43.78539 20.15289 36103 ft 439 kts 283°
2026-05-04 16:32 43.81620 19.90425 36117 ft 437 kts 283°
2026-05-04 16:33 43.83628 19.73848 36096 ft 436 kts 282°
2026-05-04 16:34 43.85129 19.61432 36101 ft 435 kts 282°
2026-05-04 16:35 43.88077 19.36615 36087 ft 435 kts 282°
2026-05-04 16:36 43.89520 19.24214 36084 ft 434 kts 282°
2026-05-04 16:37 43.90951 19.11802 36086 ft 434 kts 282°
2026-05-04 16:38 43.92843 18.95328 36085 ft 434 kts 281°
2026-05-04 16:39 43.95172 18.74683 36080 ft 433 kts 281°
2026-05-04 16:40 43.96995 18.58197 36075 ft 431 kts 281°
2026-05-04 16:41 43.99251 18.37658 36066 ft 430 kts 281°
2026-05-04 16:43 44.01453 18.17134 36062 ft 430 kts 281°
2026-05-04 16:43 44.02765 18.04824 36059 ft 429 kts 281°
2026-05-04 16:45 44.05322 17.80276 36066 ft 428 kts 281°
2026-05-04 16:46 44.07416 17.59797 36060 ft 428 kts 280°
2026-05-04 16:47 44.09066 17.43406 36076 ft 428 kts 280°
2026-05-04 16:48 44.10686 17.27068 36075 ft 428 kts 280°
2026-05-04 16:49 44.12283 17.10683 36094 ft 427 kts 279°
2026-05-04 16:50 44.13864 16.94302 36101 ft 427 kts 279°
2026-05-04 16:51 44.15026 16.82027 36110 ft 426 kts 279°
2026-05-04 16:52 44.16553 16.65692 36109 ft 425 kts 279°
2026-05-04 16:53 44.17685 16.53461 36115 ft 424 kts 278°
2026-05-04 16:54 44.19170 16.37145 36110 ft 425 kts 278°
2026-05-04 16:55 44.21357 16.12628 36128 ft 425 kts 278°
2026-05-04 16:56 44.23131 15.92297 35545 ft 422 kts 277°
2026-05-04 16:57 44.23477 15.88244 35182 ft 420 kts 277°
2026-05-04 16:57 44.24171 15.80107 35106 ft 424 kts 277°
2026-05-04 16:58 44.25554 15.63785 35109 ft 423 kts 277°
2026-05-04 17:00 44.27569 15.39306 35107 ft 423 kts 277°
2026-05-04 17:01 44.29210 15.18941 35107 ft 423 kts 277°
2026-05-04 17:02 44.30503 15.02670 35098 ft 425 kts 276°
2026-05-04 17:03 44.31460 14.90332 35097 ft 426 kts 276°
2026-05-04 17:03 44.32404 14.78000 35360 ft 426 kts 276°
2026-05-04 17:04 44.33021 14.69788 35868 ft 424 kts 276°
2026-05-04 17:04 44.33639 14.61611 36097 ft 422 kts 276°
2026-05-04 17:05 44.34840 14.45316 36100 ft 422 kts 276°
2026-05-04 17:06 44.35723 14.33093 36098 ft 421 kts 276°
2026-05-04 17:07 44.36502 14.22239 36090 ft 422 kts 276°
2026-05-04 17:07 44.37180 14.12695 36098 ft 422 kts 276°
2026-05-04 17:08 44.38033 14.00429 36104 ft 423 kts 276°
2026-05-04 17:09 44.38594 13.92250 36114 ft 422 kts 275°
2026-05-04 17:09 44.39146 13.84142 36115 ft 422 kts 275°
2026-05-04 17:10 44.40502 13.63768 36107 ft 421 kts 275°
2026-05-04 17:11 44.41036 13.55627 36107 ft 420 kts 275°
2026-05-04 17:12 44.41823 13.43453 36108 ft 418 kts 275°
2026-05-04 17:13 44.43125 13.23207 36099 ft 417 kts 275°
2026-05-04 17:14 44.44128 13.07047 36091 ft 416 kts 275°
2026-05-04 17:15 44.44865 12.94961 36091 ft 415 kts 275°
2026-05-04 17:16 44.45750 12.80266 36101 ft 413 kts 275°
2026-05-04 17:17 44.46683 12.64257 36104 ft 412 kts 275°
2026-05-04 17:18 44.47597 12.48254 36104 ft 412 kts 274°
2026-05-04 17:19 44.48494 12.32247 36111 ft 412 kts 274°
2026-05-04 17:20 44.49365 12.16249 36120 ft 412 kts 274°
2026-05-04 17:20 44.50004 12.04254 36136 ft 411 kts 274°
2026-05-04 17:21 44.50835 11.88292 36147 ft 410 kts 274°
2026-05-04 17:22 44.51244 11.80338 36141 ft 409 kts 274°
2026-05-04 17:23 44.52031 11.64433 36122 ft 409 kts 273°
2026-05-04 17:24 44.52607 11.52576 36082 ft 408 kts 273°
2026-05-04 17:24 44.53164 11.40676 35853 ft 409 kts 273°
2026-05-04 17:25 44.53346 11.36686 35288 ft 409 kts 273°
2026-05-04 17:25 44.54061 11.28786 34227 ft 412 kts 286°
2026-05-04 17:26 44.57208 11.22040 33208 ft 426 kts 313°
2026-05-04 17:26 44.63734 11.13392 31496 ft 430 kts 313°
2026-05-04 17:27 44.68075 11.07652 30435 ft 427 kts 314°
2026-05-04 17:27 44.72365 11.01933 29230 ft 422 kts 314°
2026-05-04 17:28 44.76585 10.96279 28027 ft 416 kts 314°
2026-05-04 17:29 44.82811 10.87932 26321 ft 408 kts 314°
2026-05-04 17:29 44.88921 10.79724 24720 ft 402 kts 314°
2026-05-04 17:30 44.94945 10.71610 23105 ft 397 kts 314°
2026-05-04 17:31 44.98901 10.66264 21940 ft 395 kts 314°
2026-05-04 17:31 45.04812 10.58262 20268 ft 389 kts 314°
2026-05-04 17:32 45.08694 10.52994 19205 ft 385 kts 314°
2026-05-04 17:33 45.14416 10.45184 17537 ft 377 kts 314°
2026-05-04 17:33 45.16296 10.42617 16971 ft 374 kts 314°
2026-05-04 17:34 45.21857 10.35023 15306 ft 366 kts 314°
2026-05-04 17:34 45.23683 10.32524 14767 ft 364 kts 314°
2026-05-04 17:35 45.29109 10.25090 13113 ft 358 kts 314°
2026-05-04 17:35 45.32675 10.20184 11978 ft 355 kts 314°
2026-05-04 17:35 45.34442 10.17748 11428 ft 354 kts 314°
2026-05-04 17:36 45.36206 10.15313 10887 ft 353 kts 314°
2026-05-04 17:36 45.37966 10.12885 10352 ft 352 kts 314°
2026-05-04 17:36 45.39718 10.10466 9818 ft 350 kts 314°
2026-05-04 17:36 45.41436 10.08097 9236 ft 337 kts 314°
2026-05-04 17:37 45.43068 10.05842 8672 ft 326 kts 314°
2026-05-04 17:37 45.44666 10.03626 8114 ft 316 kts 314°
2026-05-04 17:37 45.46208 10.01483 7703 ft 303 kts 314°
2026-05-04 17:37 45.47656 9.99393 7356 ft 289 kts 307°
2026-05-04 17:38 45.48480 9.96868 7094 ft 280 kts 279°
2026-05-04 17:38 45.48781 9.94128 7055 ft 281 kts 281°
2026-05-04 17:38 45.49710 9.91683 7063 ft 286 kts 315°
2026-05-04 17:38 45.51396 9.90371 7060 ft 273 kts 350°
2026-05-04 17:39 45.54492 9.92202 7059 ft 238 kts 56°
2026-05-04 17:39 45.55341 9.94128 7057 ft 221 kts 65°
2026-05-04 17:39 45.55698 9.96154 7058 ft 208 kts 99°
2026-05-04 17:40 45.55193 9.98021 7072 ft 203 kts 127°
2026-05-04 17:40 45.54409 9.99692 7069 ft 204 kts 118°
2026-05-04 17:40 45.53861 10.01561 7054 ft 205 kts 104°
2026-05-04 17:40 45.53879 10.03582 6837 ft 207 kts 74°
2026-05-04 17:41 45.54644 10.05316 6573 ft 212 kts 42°
2026-05-04 17:41 45.55973 10.06209 6259 ft 219 kts
2026-05-04 17:41 45.57496 10.05899 5834 ft 228 kts 333°
2026-05-04 17:41 45.58718 10.04441 5406 ft 234 kts 311°
2026-05-04 17:42 45.59836 10.02703 4980 ft 239 kts 311°
2026-05-04 17:42 45.60906 10.00923 4617 ft 231 kts 301°
2026-05-04 17:42 45.61502 9.98898 4455 ft 215 kts 284°
2026-05-04 17:42 45.61881 9.96881 4211 ft 206 kts 284°
2026-05-04 17:43 45.62239 9.94970 3954 ft 193 kts 284°
2026-05-04 17:43 45.62577 9.93177 3694 ft 181 kts 285°
2026-05-04 17:43 45.62896 9.91481 3462 ft 172 kts 284°
2026-05-04 17:43 45.63199 9.89869 3240 ft 166 kts 285°
2026-05-04 17:44 45.63494 9.88297 3021 ft 163 kts 284°
2026-05-04 17:44 45.63786 9.86747 2797 ft 159 kts 285°
2026-05-04 17:44 45.64067 9.85244 2588 ft 155 kts 285°
2026-05-04 17:44 45.64342 9.83778 2396 ft 152 kts 285°
2026-05-04 17:45 45.64610 9.82348 2211 ft 149 kts 285°
2026-05-04 17:45 45.64875 9.80930 2004 ft 147 kts 285°
2026-05-04 17:45 45.65138 9.79528 1786 ft 141 kts 284°
2026-05-04 17:45 45.65385 9.78202 1602 ft 136 kts 286°
2026-05-04 17:46 45.65629 9.76897 1421 ft 136 kts 285°
2026-05-04 17:46 45.65874 9.75584 1250 ft 137 kts 284°
2026-05-04 17:46 45.66119 9.74256 1090 ft 138 kts 285°
2026-05-04 17:46 45.66367 9.72929 893 ft 139 kts 285°
2026-05-04 17:47 45.66616 9.71621 782 ft 128 kts 285°
2026-05-04 17:47 45.66799 9.70614 786 ft 80 kts 285°
2026-05-04 17:47 45.66885 9.70134 792 ft 20 kts 275°
2026-05-04 17:47 45.66831 9.70076 791 ft 14 kts 176°
2026-05-04 17:48 45.66762 9.70106 790 ft 1 kts 183°
2026-05-04 17:48 45.66747 9.70105 790 ft 4 kts 183°
2026-05-04 17:48 45.66721 9.70103 790 ft 0 kts 186°
2026-05-04 17:50 45.66720 9.70102 790 ft 0 kts 196°
2026-05-04 17:50 45.66719 9.70095 790 ft 1 kts 248°
2026-05-04 17:50 45.66722 9.70074 790 ft 0 kts 282°
2026-05-04 17:51 45.66725 9.70066 790 ft 2 kts 294°
2026-05-04 17:51 45.66734 9.70039 790 ft 5 kts 294°
2026-05-04 17:51 45.66743 9.69975 790 ft 8 kts 262°
2026-05-04 17:51 45.66685 9.69937 790 ft 12 kts 193°
2026-05-04 17:52 45.66650 9.69925 790 ft 0 kts 193°